W2DEN Weather Reports


time (UTC)temp
C
wind
direction
speed
KPH
gust
KPH
rain 1hr
cm
rain 24hr
cm
rain mn
cm
humidity
%
barometer
mb
20260510070719 19 0.0 0.0 0.08 0.10 0.08 95 1013.8
20260510065717 19 0.0 0.0 0.08 0.10 0.08 95 1013.6
20260510064737 19 0.0 0.0 0.08 0.10 0.08 95 1012.9
20260510063717 19 0.0 0.0 0.05 0.08 0.05 95 1013.5
20260510062738 19 0.0 0.0 0.03 0.05 0.03 95 1013.7
20260510061718 19 0.0 0.0 0.00 0.03 0.00 95 1013.8
20260510060717 19 0.0 0.0 0.00 0.03 0.00 95 1013.8
20260510055717 19 0.0 0.0 0.00 0.03 0.00 95 1013.9
20260510054737 19 0.0 0.0 0.00 0.03 0.00 95 1014.1
20260510053717 19 0.0 0.0 0.00 0.03 0.00 95 1014.2
20260510052717 19 0.0 0.0 0.00 0.03 0.00 95 1014.3
20260510051718 19 0.0 0.0 0.00 0.03 0.00 95 1014.3
20260510050718 19 0.0 0.0 0.00 0.03 0.00 95 1014.5
20260510045717 19 0.0 0.0 0.00 0.03 0.00 94 1014.6
20260510044718 19 0.0 0.0 0.00 0.03 0.00 94 1014.7
20260510043717 19 0.0 0.0 0.00 0.03 0.00 94 1014.4
20260510042717 19 0.0 0.0 0.00 0.03 0.00 94 1014.3
20260510041718 19 0.0 0.0 0.00 0.03 0.00 94 1014.2
20260510040717 19 0.0 0.0 0.00 0.03 0.00 94 1014.1
20260510035718 19 0.0 0.0 0.00 0.03 0.03 94 1014.1
20260510001337 21 0.0 0.0 0.00 0.08 0.03 89 1012.7
20260510000616 21 0.0 0.0 0.00 0.08 0.03 89 1012.7
20260509235617 21 0.0 0.0 0.00 0.08 0.03 88 1012.2
20260509234616 21 0.0 0.0 0.00 0.08 0.03 88 1012.4
20260509233616 21 0.0 0.0 0.00 0.08 0.03 87 1012.3
20260509232617 21 0.0 0.0 0.00 0.08 0.03 86 1012.2
20260509231616 21 0.0 0.0 0.00 0.08 0.03 86 1012.1
20260509230616 22 0.0 0.0 0.00 0.08 0.03 85 1012.4
20260509225617 22 0.0 0.0 0.00 0.08 0.03 84 1011.9
20260509224616 22 0.0 0.0 0.00 0.08 0.03 85 1012.0
20260509223618 22 45 1.6 1.6 0.00 0.08 0.03 84 1011.9
20260509222616 22 0.0 0.0 0.00 0.08 0.03 84 1011.7
20260509221616 22 0.0 0.0 0.00 0.08 0.03 84 1012.0
20260509220616 22 0.0 1.6 0.00 0.08 0.03 84 1011.9
20260509215616 22 0.0 1.6 0.00 0.08 0.03 85 1011.9
20260509214617 22 0.0 1.6 0.00 0.08 0.03 84 1011.8
20260509213617 22 0.0 1.6 0.00 0.08 0.03 83 1011.9
20260509212617 22 0.0 0.0 0.00 0.08 0.03 83 1011.9
20260509211618 22 0.0 0.0 0.00 0.08 0.03 83 1011.9
20260509210617 22 0.0 0.0 0.00 0.08 0.03 83 1012.5
20260509205618 22 0.0 0.0 0.00 0.08 0.03 84 1012.6
20260509204618 22 0.0 0.0 0.00 0.08 0.03 81 1012.5
20260509203616 22 0.0 0.0 0.00 0.08 0.03 80 1012.2
20260509202616 23 0.0 0.0 0.00 0.08 0.03 81 1012.1
20260509201617 23 0.0 0.0 0.00 0.08 0.03 81 1012.0
20260509200616 22 0.0 0.0 0.00 0.08 0.03 80 1012.2
20260509195616 22 0.0 0.0 0.00 0.08 0.03 80 1012.3
20260509194616 22 0.0 0.0 0.00 0.08 0.03 81 1012.4
20260509193616 22 225 1.6 3.2 0.00 0.08 0.03 81 1012.6
20260509192616 22 0.0 1.6 0.00 0.08 0.03 83 1012.6
20260509191616 22 23 1.6 1.6 0.00 0.08 0.03 83 1012.7
20260509190616 22 0 1.6 4.8 0.03 0.08 0.03 83 1012.8
20260509185616 22 0 3.2 6.4 0.03 0.08 0.03 83 1012.8
20260509184616 22 0 1.6 3.2 0.03 0.08 0.03 85 1013.0
20260509183616 22 0.0 1.6 0.03 0.08 0.03 85 1013.0
20260509182616 22 23 1.6 3.2 0.03 0.08 0.03 84 1013.0
20260509181616 22 248 1.6 4.8 0.03 0.08 0.03 83 1012.9
20260509180616 23 0.0 0.0 0.00 0.05 0.00 81 1012.5
20260509175617 23 0.0 1.6 0.00 0.05 0.00 77 1012.2
20260509174616 24 0.0 1.6 0.00 0.05 0.00 76 1012.2
20260509173616 24 0.0 1.6 0.00 0.05 0.00 76 1012.4
20260509172616 25 0.0 1.6 0.00 0.05 0.00 76 1012.7
20260509171617 25 0.0 1.6 0.00 0.05 0.00 74 1012.8
20260509170616 25 0.0 1.6 0.00 0.05 0.00 73 1012.9
20260509165617 25 23 1.6 1.6 0.00 0.05 0.00 71 1012.8
20260509164616 25 23 1.6 3.2 0.00 0.05 0.00 72 1012.9
20260509163616 25 0.0 1.6 0.00 0.05 0.00 72 1013.3
20260509162616 26 0.0 1.6 0.00 0.05 0.00 70 1013.1
20260509161616 26 0 3.2 6.4 0.00 0.05 0.00 68 1013.3
20260509160616 26 23 1.6 1.6 0.00 0.05 0.00 70 1013.2
20260509155616 26 338 1.6 3.2 0.00 0.05 0.00 71 1013.0
20260509154616 26 23 1.6 3.2 0.00 0.05 0.00 74 1013.1
20260509153616 25 23 1.6 3.2 0.00 0.05 0.00 75 1013.1
20260509152616 25 23 1.6 3.2 0.00 0.05 0.00 76 1013.3
20260509151616 25 0.0 1.6 0.00 0.05 0.00 76 1013.6
20260509150616 25 23 1.6 3.2 0.00 0.05 0.00 79 1013.8
20260509145616 24 23 1.6 4.8 0.00 0.05 0.00 83 1013.7
20260509144616 22 0.0 1.6 0.00 0.05 0.00 87 1013.9
20260509143616 22 23 1.6 3.2 0.00 0.05 0.00 87 1014.0
20260509142616 22 0.0 1.6 0.00 0.05 0.00 88 1013.9
20260509141636 22 0.0 0.0 0.00 0.05 0.00 89 1013.8
20260509140617 22 0.0 1.6 0.00 0.05 0.00 88 1013.8
20260509135616 22 0.0 1.6 0.00 0.05 0.00 89 1013.8
20260509134617 22 0.0 1.6 0.00 0.05 0.00 90 1013.7
20260509133616 22 0.0 1.6 0.00 0.05 0.00 90 1013.6
20260509132616 21 0.0 1.6 0.00 0.05 0.00 93 1013.4
20260509131616 20 0.0 1.6 0.00 0.05 0.00 94 1013.5
20260509130616 19 0.0 0.0 0.00 0.05 0.00 94 1013.6
20260509125616 19 0.0 0.0 0.00 0.05 0.00 95 1013.6
20260509124616 18 0 1.6 1.6 0.00 0.05 0.00 96 1013.7
20260509123636 18 0.0 0.0 0.00 0.05 0.00 96 1013.8
20260509122636 18 0.0 0.0 0.00 0.05 0.00 96 1013.9
20260509121616 18 0.0 0.0 0.00 0.05 0.00 96 1013.7
20260509120616 18 0.0 0.0 0.00 0.05 0.00 96 1013.7
20260509115616 18 0.0 0.0 0.00 0.05 0.00 96 1013.4
20260509114616 17 0.0 0.0 0.00 0.05 0.00 96 1013.3
20260509113616 17 0.0 0.0 0.00 0.05 0.00 96 1013.2
20260509112616 17 0.0 0.0 0.00 0.05 0.00 96 1012.9
20260509111616 16 0.0 0.0 0.00 0.05 0.00 96 1013.2
20260509110616 16 0.0 0.0 0.00 0.05 0.00 96 1013.2
20260509105616 16 0.0 0.0 0.00 0.05 0.00 96 1012.9
20260509104616 16 0.0 0.0 0.00 0.05 0.00 96 1012.7
20260509103616 16 0.0 0.0 0.00 0.05 0.00 96 1012.6
20260509102617 16 0.0 0.0 0.00 0.05 0.00 96 1012.6
20260509101616 16 0.0 0.0 0.00 0.05 0.00 96 1012.5
20260509100616 16 0.0 0.0 0.00 0.05 0.00 96 1012.3
20260509095616 16 0.0 0.0 0.00 0.05 0.00 96 1011.8
20260509094616 16 0.0 0.0 0.00 0.05 0.00 95 1011.8
20260509093617 16 0.0 0.0 0.00 0.05 0.00 95 1011.9
20260509092616 16 0.0 0.0 0.00 0.05 0.00 95 1011.8
20260509091615 16 0.0 0.0 0.00 0.05 0.00 95 1012.0
20260509090616 17 0.0 0.0 0.00 0.05 0.00 95 1012.3
20260509085638 17 0.0 0.0 0.00 0.05 0.00 95 1012.7
20260509084618 17 0.0 0.0 0.00 0.05 0.00 95 1012.7
20260509083618 17 0.0 0.0 0.00 0.05 0.00 95 1012.7
20260509082618 17 0.0 0.0 0.00 0.05 0.00 95 1012.6
20260509081618 17 0.0 0.0 0.00 0.05 0.00 95 1012.5
20260509080638 17 0.0 0.0 0.00 0.05 0.00 95 1012.5
20260509075618 17 0.0 1.6 0.00 0.05 0.00 95 1012.7
20260509074658 17 0.0 0.0 0.00 0.05 0.00 95 1012.8
20260509073638 17 0 1.6 1.6 0.00 0.05 0.00 95 1012.7
20260509072617 17 0.0 0.0 0.00 0.05 0.00 95 1012.8
20260509071618 17 0.0 0.0 0.00 0.05 0.00 95 1013.1